Gassville, AR

12:27 PM CST on January 24, 2017 (GMT -0600)
Baxter County Regional

Weather History for KBPK - December, 2011

Change the Weather History Date:

Friday, December 16, 2011

  Actual Average (KFLP) Record (KFLP)
Temperature  
Mean Temperature 37 °F -  
Max Temperature 44 °F 45 °F 69 °F (2006)
Min Temperature 30 °F 27 °F 21 °F (2000)
Degree Days  
Heating Degree Days 28    
Moisture  
Dew Point 25 °F    
Average Humidity 63    
Maximum Humidity 79    
Minimum Humidity 45    
Precipitation  
Precipitation 0.00 in - - ()
Sea Level Pressure  
Sea Level Pressure 30.38 in    
Wind  
Wind Speed 4 mph (NNW)    
Max Wind Speed 7 mph    
Max Gust Speed -    
Visibility 9 miles    
Events      
Averages and records for this station are not official NWS values.
T = Trace of Precipitation, MM = Missing Value Source: NWS Daily Summary

Daily Weather History Graph

Daily Weather History Graph

Search for Another Location

Airport or City:

Trip Planner

Search our weather history database for the weather conditions in past years. The results will help you decide how hot, cold, wet, or windy it might be!

Date:

Astronomy

Dec. 16, 2011 Rise Set
Actual Time 7:14 AM CST 4:56 PM CST
Civil Twilight 6:45 AM CST 5:24 PM CST
Nautical Twilight 6:13 AM CST 5:57 PM CST
Astronomical Twilight 5:42 AM CST 6:28 PM CST
Moon 11:19 PM CST (12/16) 11:09 AM CST (12/16)
Length of Visible Light 10h 39m
Length of Day
9h 41m
Waning Gibbous, 64% of the Moon is Illuminated
Dec 16
Waning Gibbous
Dec 17
Last Quarter
Dec 24
New
Jan 1
First Quarter
Jan 9
Full

Hourly Weather History & Observations

Time (CST) Temp. Windchill Dew Point Humidity Pressure Visibility Wind Dir Wind Speed Gust Speed Precip Events Conditions
12:53 AM 35.1 °F 31.0 °F 26.1 °F 70% 30.32 in 8.0 mi North 4.6 mph - N/A   Clear
1:53 AM 35.1 °F 31.0 °F 26.1 °F 70% 30.33 in 8.0 mi North 4.6 mph - N/A   Scattered Clouds
2:53 AM 35.1 °F 31.0 °F 26.1 °F 70% 30.33 in 8.0 mi Variable 4.6 mph - N/A   Mostly Cloudy
3:53 AM 34.0 °F 31.0 °F 26.1 °F 73% 30.34 in 9.0 mi NNW 3.5 mph - N/A   Overcast
4:53 AM 34.0 °F 29.8 °F 25.0 °F 70% 30.35 in 9.0 mi Variable 4.6 mph - N/A   Partly Cloudy
6:53 AM 33.1 °F 30.0 °F 25.0 °F 72% 30.35 in 8.0 mi North 3.5 mph - N/A   Partly Cloudy
7:53 AM 33.1 °F 30.0 °F 25.0 °F 72% 30.39 in 7.0 mi Variable 3.5 mph - N/A   Mostly Cloudy
8:53 AM 34.0 °F 28.0 °F 25.0 °F 70% 30.40 in 8.0 mi North 6.9 mph - N/A   Clear
9:53 AM 36.0 °F 32.1 °F 25.0 °F 64% 30.43 in 8.0 mi Variable 4.6 mph - N/A   Clear
10:53 AM 39.0 °F 36.8 °F 25.0 °F 57% 30.42 in 9.0 mi Variable 3.5 mph - N/A   Clear
11:53 AM 41.0 °F 38.0 °F 25.0 °F 53% 30.40 in 9.0 mi Variable 4.6 mph - N/A   Clear
12:53 PM 43.0 °F - 25.0 °F 49% 30.37 in 9.0 mi Calm Calm - N/A   Clear
1:53 PM 44.1 °F 42.5 °F 26.1 °F 49% 30.37 in 10.0 mi Variable 3.5 mph - N/A   Clear
2:53 PM 44.1 °F 40.1 °F 25.0 °F 47% 30.36 in 10.0 mi WNW 6.9 mph - N/A   Clear
3:53 PM 44.1 °F 42.5 °F 24.1 °F 45% 30.36 in 10.0 mi Variable 3.5 mph - N/A   Clear
4:53 PM 41.0 °F 39.0 °F 24.1 °F 51% 30.37 in 10.0 mi NW 3.5 mph - N/A   Clear
5:53 PM 37.9 °F - 24.1 °F 57% 30.39 in 10.0 mi Calm Calm - N/A   Clear
6:53 PM 37.9 °F - 24.1 °F 57% 30.41 in 10.0 mi Calm Calm - N/A   Clear
7:53 PM 35.1 °F - 24.1 °F 64% 30.40 in 10.0 mi Calm Calm - N/A   Clear
8:53 PM 35.1 °F - 24.1 °F 64% 30.42 in 10.0 mi Calm Calm - N/A   Clear
9:53 PM 33.1 °F - 24.1 °F 70% 30.41 in 10.0 mi Calm Calm - N/A   Clear
10:53 PM 30.9 °F - 24.1 °F 76% 30.41 in 10.0 mi Calm Calm - N/A   Clear
11:53 PM 30.0 °F - 24.1 °F 79% 30.40 in 9.0 mi Calm Calm - N/A   Clear